Lincoln, IL

9:03 PM CST on January 24, 2017 (GMT -0600)
Lincoln

Weather History for KAAA - March, 2013

Change the Weather History Date:

Monday, March 11, 2013

  Actual Average (KSPI) Record (KSPI)
Temperature  
Mean Temperature 42 °F -  
Max Temperature 50 °F 50 °F 82 °F (1972)
Min Temperature 33 °F 31 °F 0 °F (1948)
Degree Days  
Heating Degree Days 24    
Moisture  
Dew Point 34 °F    
Average Humidity 86    
Maximum Humidity 95    
Minimum Humidity 77    
Precipitation  
Precipitation 0.01 in - - ()
Sea Level Pressure  
Sea Level Pressure 29.73 in    
Wind  
Wind Speed 8 mph (WSW)    
Max Wind Speed 15 mph    
Max Gust Speed 25 mph    
Visibility 9 miles    
Events Rain    
Averages and records for this station are not official NWS values.
T = Trace of Precipitation, MM = Missing Value Source: NWS Daily Summary

Daily Weather History Graph

Daily Weather History Graph

Search for Another Location

Airport or City:

Trip Planner

Search our weather history database for the weather conditions in past years. The results will help you decide how hot, cold, wet, or windy it might be!

Date:

Astronomy

Mar. 11, 2013 Rise Set
Actual Time 7:14 AM CDT 7:00 PM CDT
Civil Twilight 6:47 AM CDT 7:27 PM CDT
Nautical Twilight 6:16 AM CDT 7:58 PM CDT
Astronomical Twilight 5:44 AM CDT 8:30 PM CDT
Moon 6:48 AM CDT (3/11) 7:12 PM CDT (3/11)
Length of Visible Light 12h 39m
Length of Day
11h 45m
Waning Crescent, 0% of the Moon is Illuminated
Mar 11
Waning Crescent
Mar 11
New
Mar 19
First Quarter
Mar 27
Full
Apr 2
Last Quarter

Hourly Weather History & Observations

Time (CDT) Temp. Windchill Dew Point Humidity Pressure Visibility Wind Dir Wind Speed Gust Speed Precip Events Conditions
12:15 AM 50.4 °F - 48.6 °F 94% 29.66 in 7.0 mi SSW 6.9 mph - N/A Rain Rain
12:35 AM 50.2 °F - 48.6 °F 94% 29.66 in 5.0 mi SSW 6.9 mph - N/A Rain Light Rain
12:55 AM 50.2 °F - 48.7 °F 95% 29.66 in 5.0 mi SW 3.5 mph - N/A   Light Drizzle
1:15 AM 49.5 °F - 47.7 °F 94% 29.66 in 10.0 mi SW 5.8 mph - N/A   Overcast
1:35 AM 48.7 °F - 45.5 °F 89% 29.66 in 10.0 mi SW 6.9 mph - N/A   Overcast
1:55 AM 47.7 °F - 43.9 °F 87% 29.67 in 10.0 mi SW 5.8 mph - N/A   Overcast
2:15 AM 46.8 °F - 42.4 °F 85% 29.66 in 10.0 mi WSW 6.9 mph - N/A   Overcast
2:35 AM 45.9 °F 42.9 °F 41.9 °F 86% 29.67 in 10.0 mi WSW 5.8 mph - N/A   Overcast
2:55 AM 44.6 °F 39.2 °F 40.6 °F 86% 29.67 in 10.0 mi WSW 10.4 mph 18.4 mph N/A   Overcast
3:15 AM 43.5 °F 38.3 °F 40.3 °F 88% 29.67 in 10.0 mi WSW 9.2 mph - N/A   Overcast
3:35 AM 42.4 °F 37.5 °F 40.1 °F 91% 29.66 in 10.0 mi WSW 8.1 mph 17.3 mph N/A   Overcast
3:55 AM 41.9 °F 38.2 °F 40.1 °F 93% 29.65 in 7.0 mi WSW 5.8 mph - N/A   Overcast
4:15 AM 41.5 °F 37.8 °F 40.1 °F 95% 29.64 in 7.0 mi SW 5.8 mph - N/A   Overcast
4:35 AM 41.2 °F 37.3 °F 39.6 °F 94% 29.64 in 7.0 mi WSW 5.8 mph - N/A   Overcast
4:55 AM 40.6 °F 36.7 °F 39.0 °F 94% 29.66 in 10.0 mi SW 5.8 mph - N/A   Overcast
5:15 AM 40.3 °F 35.5 °F 38.3 °F 93% 29.67 in 10.0 mi SW 6.9 mph - N/A Rain Light Rain
5:35 AM 39.7 °F 35.6 °F 37.8 °F 93% 29.67 in 10.0 mi WSW 5.8 mph - N/A   Overcast
5:55 AM 39.4 °F 35.2 °F 37.4 °F 93% 29.67 in 7.0 mi WSW 5.8 mph - N/A   Overcast
6:15 AM 39.2 °F 34.2 °F 36.7 °F 91% 29.68 in 10.0 mi WSW 6.9 mph - N/A   Overcast
6:35 AM 39.2 °F 32.5 °F 36.1 °F 89% 29.69 in 10.0 mi WSW 10.4 mph - N/A   Overcast
6:55 AM 38.3 °F 31.4 °F 35.8 °F 91% 29.69 in 10.0 mi SW 10.4 mph 16.1 mph N/A   Overcast
7:15 AM 37.6 °F 30.0 °F 35.1 °F 91% 29.68 in 7.0 mi WSW 11.5 mph 17.3 mph N/A   Overcast
7:35 AM 37.4 °F 31.4 °F 34.9 °F 91% 29.67 in 7.0 mi WSW 8.1 mph - N/A   Overcast
7:55 AM 37.0 °F 33.3 °F 34.7 °F 91% 29.67 in 7.0 mi WSW 4.6 mph - N/A   Overcast
8:15 AM 36.5 °F 29.7 °F 34.0 °F 91% 29.68 in 7.0 mi WSW 9.2 mph - N/A   Overcast
8:35 AM 36.7 °F 32.9 °F 33.8 °F 89% 29.69 in 7.0 mi WSW 4.6 mph - N/A   Overcast
8:55 AM 36.5 °F 31.0 °F 34.0 °F 91% 29.69 in 5.0 mi WSW 6.9 mph - N/A   Overcast
9:15 AM 36.5 °F 30.3 °F 33.3 °F 88% 29.69 in 10.0 mi WSW 8.1 mph - N/A   Overcast
9:35 AM 36.5 °F 31.0 °F 33.4 °F 89% 29.69 in 7.0 mi WSW 6.9 mph 16.1 mph N/A   Overcast
9:55 AM 36.1 °F 31.4 °F 33.3 °F 89% 29.69 in 7.0 mi SW 5.8 mph - N/A   Overcast
10:15 AM 36.1 °F 29.3 °F 33.3 °F 89% 29.70 in 5.0 mi WSW 9.2 mph 18.4 mph N/A Rain Light Rain
10:35 AM 36.0 °F 32.1 °F 33.4 °F 91% 29.69 in 4.0 mi WSW 4.6 mph 16.1 mph N/A   Drizzle
10:55 AM 36.0 °F 27.5 °F 33.8 °F 92% 29.69 in 4.0 mi WSW 12.7 mph 20.7 mph N/A   Light Drizzle
11:15 AM 36.3 °F 29.5 °F 33.4 °F 89% 29.69 in 7.0 mi WSW 9.2 mph 20.7 mph N/A Rain Light Rain
11:35 AM 36.5 °F 28.2 °F 32.9 °F 87% 29.68 in 10.0 mi WSW 12.7 mph 21.9 mph N/A   Overcast
11:55 AM 36.5 °F 29.2 °F 33.1 °F 87% 29.69 in 10.0 mi WSW 10.4 mph 17.3 mph N/A   Overcast
12:15 PM 36.9 °F 30.7 °F 33.4 °F 87% 29.69 in 10.0 mi WSW 8.1 mph 21.9 mph N/A   Light Drizzle
12:35 PM 36.7 °F 28.9 °F 32.9 °F 86% 29.69 in 10.0 mi WSW 11.5 mph 20.7 mph N/A   Overcast
12:55 PM 36.7 °F 28.4 °F 32.9 °F 86% 29.68 in 10.0 mi West 12.7 mph 23.0 mph N/A Rain Light Rain
1:15 PM 36.5 °F 28.2 °F 32.7 °F 86% 29.68 in 10.0 mi West 12.7 mph 21.9 mph N/A   Overcast
1:35 PM 36.7 °F 28.9 °F 32.4 °F 84% 29.68 in 10.0 mi WSW 11.5 mph 21.9 mph N/A   Overcast
1:55 PM 36.7 °F 29.4 °F 32.2 °F 84% 29.68 in 10.0 mi West 10.4 mph 20.7 mph N/A   Overcast
2:15 PM 36.7 °F 28.9 °F 32.0 °F 83% 29.69 in 10.0 mi West 11.5 mph 20.7 mph N/A   Overcast
2:35 PM 36.7 °F 28.9 °F 32.0 °F 83% 29.70 in 10.0 mi WSW 11.5 mph 21.9 mph N/A   Overcast
2:55 PM 36.5 °F 27.4 °F 32.0 °F 84% 29.71 in 10.0 mi West 15.0 mph 20.7 mph N/A   Overcast
3:15 PM 36.1 °F 29.3 °F 32.0 °F 85% 29.72 in 7.0 mi WSW 9.2 mph 20.7 mph N/A   Overcast
3:35 PM 36.0 °F 28.5 °F 32.0 °F 86% 29.72 in 7.0 mi West 10.4 mph 16.1 mph N/A   Overcast
3:55 PM 35.8 °F 27.8 °F 32.0 °F 86% 29.73 in 10.0 mi West 11.5 mph 19.6 mph N/A   Overcast
4:15 PM 35.8 °F 28.3 °F 31.6 °F 85% 29.74 in 10.0 mi West 10.4 mph 18.4 mph N/A   Overcast
4:35 PM 35.6 °F 28.0 °F 31.3 °F 84% 29.76 in 10.0 mi West 10.4 mph 25.3 mph N/A   Overcast
4:55 PM 35.1 °F 29.3 °F 31.1 °F 85% 29.76 in 10.0 mi West 6.9 mph 18.4 mph N/A   Overcast
5:15 PM 35.1 °F 27.4 °F 30.9 °F 85% 29.76 in 10.0 mi West 10.4 mph 19.6 mph N/A   Overcast
5:35 PM 35.1 °F 27.9 °F 30.6 °F 84% 29.77 in 10.0 mi West 9.2 mph 20.7 mph N/A   Overcast
5:55 PM 35.1 °F 28.6 °F 30.7 °F 84% 29.78 in 10.0 mi West 8.1 mph 16.1 mph N/A   Overcast
6:15 PM 35.6 °F 28.6 °F 30.2 °F 81% 29.79 in 10.0 mi West 9.2 mph 16.1 mph N/A   Overcast
6:35 PM 35.4 °F 29.7 °F 30.2 °F 81% 29.81 in 10.0 mi West 6.9 mph 16.1 mph N/A   Overcast
6:55 PM 35.2 °F 27.6 °F 29.3 °F 79% 29.82 in 10.0 mi West 10.4 mph 18.4 mph N/A   Overcast
7:15 PM 35.1 °F 28.6 °F 28.9 °F 78% 29.83 in 10.0 mi West 8.1 mph 17.3 mph N/A   Overcast
7:35 PM 34.9 °F 28.3 °F 29.3 °F 80% 29.84 in 10.0 mi West 8.1 mph 16.1 mph N/A   Overcast
7:55 PM 35.1 °F 30.1 °F 30.0 °F 82% 29.84 in 10.0 mi West 5.8 mph - N/A   Overcast
8:15 PM 34.7 °F 26.9 °F 29.1 °F 80% 29.85 in 10.0 mi West 10.4 mph 17.3 mph N/A   Overcast
8:35 PM 34.7 °F 28.1 °F 29.1 °F 80% 29.86 in 10.0 mi West 8.1 mph - N/A   Overcast
8:55 PM 34.7 °F 28.1 °F 29.5 °F 81% 29.87 in 10.0 mi West 8.1 mph - N/A   Overcast
9:15 PM 34.7 °F 28.8 °F 29.1 °F 80% 29.88 in 10.0 mi West 6.9 mph - N/A   Overcast
9:35 PM 34.5 °F 29.4 °F 29.1 °F 81% 29.89 in 10.0 mi West 5.8 mph - N/A   Overcast
9:55 PM 34.3 °F 27.0 °F 28.4 °F 79% 29.90 in 10.0 mi West 9.2 mph 19.6 mph N/A   Overcast
10:15 PM 34.0 °F 27.2 °F 28.0 °F 79% 29.90 in 10.0 mi West 8.1 mph - N/A   Overcast
10:35 PM 33.8 °F 27.0 °F 28.4 °F 81% 29.91 in 10.0 mi West 8.1 mph - N/A   Overcast
10:55 PM 33.8 °F 27.0 °F 28.4 °F 81% 29.91 in 10.0 mi West 8.1 mph - N/A   Overcast
11:15 PM 33.8 °F 27.7 °F 28.4 °F 81% 29.92 in 10.0 mi West 6.9 mph - N/A   Overcast
11:35 PM 33.8 °F 26.4 °F 27.5 °F 78% 29.92 in 10.0 mi West 9.2 mph - N/A   Overcast
11:55 PM 33.4 °F 26.6 °F 27.0 °F 77% 29.92 in 10.0 mi West 8.1 mph 17.3 mph N/A   Overcast